Regional Weather Roundup
Issued by NWS

Home | Current Version | Previous Version | Text Only | Print | Product List | Glossary Off
Versions: 1 2 3 4 5 6 7 8 9 10 11 12 13 14 15 16 17 18 19 20 21 22 23 24 25 26 27 28 29 30 31 32 33 34 35 36 37 38 39 40 41 42 43 44 45 46 47 48 49 50

000
ASUS45 KPSR 101710
RWRAZ

ARIZONA HOURLY REGIONAL WEATHER ROUNDUP
NATIONAL WEATHER SERVICE PHOENIX AZ
1000 AM MST SAT DEC 10 2016

NOTE: FAIR INDICATES FEW OR NO CLOUDS BELOW 12,000 FEET WITH NO
SIGNIFICANT WEATHER AND/OR OBSTRUCTIONS TO VISIBILITY.

AZZ001>003-036-101800-
NORTHWEST ARIZONA

CITY           SKY/WX    TMP DP  RH WIND       PRES   REMARKS
BULLHEAD CITY  MOSUNNY   50  25  37 CALM      30.18R
KINGMAN        SUNNY     53  36  52 CALM      30.15R
$$

AZZ004>008-015-016-018-101800-
NORTH CENTRAL ARIZONA

CITY           SKY/WX    TMP DP  RH WIND       PRES   REMARKS
GRAND CANYON   SUNNY     42  35  76 SW13      30.21F
WILLIAMS       SUNNY     48  30  49 SW9G15    30.22S
PRESCOTT       SUNNY     45  36  70 CALM      30.22R
FLAGSTAFF      SUNNY     41  33  73 SW8       30.24R
PAYSON         SUNNY     48  32  53 SE6       30.27R
PAGE           PTSUNNY   39  18  42 E3        30.17S
$$

AZZ009>014-017-101800-
NORTHEAST ARIZONA

CITY           SKY/WX    TMP DP  RH WIND       PRES   REMARKS
WINSLOW        PTSUNNY   40  29  64 E6        30.19F
SAINT JOHNS    MOSUNNY   42  24  49 CALM      30.21S
WINDOW ROCK    MOSUNNY   39  29  67 CALM      30.23R
SHOW LOW       MOSUNNY   48  23  37 S18       30.25R
$$

AZZ023-101800-
GREATER PHOENIX AREA

CITY           SKY/WX    TMP DP  RH WIND       PRES   REMARKS
PHOENIX        MOSUNNY   59  38  45 SE5       30.15R
BUCKEYE        SUNNY     54  45  71 S6        30.17S
GLENDALE       MOSUNNY   55  39  54 CALM      30.18R
LUKE AFB       SUNNY     58  40  52 N3        30.15R
DEER VALLEY    SUNNY     57  38  48 CALM      30.15R
SCOTTSDALE     SUNNY     57  38  48 CALM      30.17R
MESA-GATEWAY   SUNNY     55  36  47 S6        30.16S
CHANDLER       SUNNY     55  39  54 E6        30.16S
$$

AZZ027-028-101800-
SOUTHWEST MARICOPA COUNTY AND PINAL COUNTY

CITY           SKY/WX    TMP DP  RH WIND       PRES   REMARKS
CASA GRANDE    NOT AVBL
GILA BEND      FAIR      55  38  53 NE3       30.16R
$$

AZZ503-504-507>509-101800-
SOUTHEAST ARIZONA

CITY           SKY/WX    TMP DP  RH WIND       PRES   REMARKS
TUCSON         SUNNY     57  32  38 S5        30.19R
DAVIS-MONTHAN  SUNNY     62  32  33 SE3       30.18R
RYAN FIELD     SUNNY     55  34  44 E6        30.19R
NOGALES        SUNNY     61  29  29 CALM      30.20R
SIERRA VISTA   SUNNY     53  30  41 VRB1      30.23R
DOUGLAS        SUNNY     49  32  52 CALM      30.23S
SAFFORD        SUNNY     51  34  52 SE14      30.24R
$$

AZZ020-021-025-026-031-101800-
SOUTHWEST ARIZONA

CITY           SKY/WX    TMP DP  RH WIND       PRES   REMARKS
YUMA           SUNNY     61  28  28 N10       30.13R
$$

CAZ031-033-041-043-047-048-061-101800-
SOUTHERN CALIFORNIA

CITY           SKY/WX    TMP DP  RH WIND       PRES   REMARKS
DOWNTOWN L.A.  CLOUDY    54  53  97 VRB5      30.18S FOG
L.A. AIRPORT   CLOUDY    56  54  93 E5        30.19R FOG
SAN DIEGO      CLOUDY    58  52  80 E3        30.22R
BURBANK        CLOUDY    52  50  93 CALM      30.18R FOG
ONTARIO        PTSUNNY   52  48  86 CALM      30.19R FOG
RIVERSIDE      CLOUDY    50  49  96 CALM      30.20R FOG
PALM SPRINGS   SUNNY     61  45  55 CALM      30.14S
EL CENTRO NAS  MOSUNNY   58  37  45 CALM      30.16R
IMPERIAL       SUNNY     57  39  51 CALM      30.14R
BLYTHE         SUNNY     54  20  26 S3        30.16R
NEEDLES        PTSUNNY   52  28  39 NE3       30.16R
$$

NVZ020-UTZ003-101800-
SOUTHERN NEVADA-UTAH

CITY           SKY/WX    TMP DP  RH WIND       PRES   REMARKS
LAS VEGAS      PTSUNNY   50  18  28 E3        30.14R
SALT LAKE CITY CLOUDY    42  39  89 CALM      29.92F
$$

NMZ009-TXZ055-101800-
NEW MEXICO-WEST TEXAS

CITY           SKY/WX    TMP DP  RH WIND       PRES   REMARKS
ALBUQUERQUE    MOSUNNY   36  26  67 CALM      30.27R
EL PASO        SUNNY     44  29  55 N5        30.29R
$$


........................KEY........................
SKY/WX - SKY CONDITION/WEATHER
TMP    - TEMPERATURE IN FAHRENHEIT
DP     - DEW POINT IN FAHRENHEIT
RH     - RELATIVE HUMIDITY IN PERCENT
WIND   - DIRECTION AND SPEED IN MILES PER HOUR (MPH)
VRB    - VARIABLE WIND DIRECTION
PRES   - MEAN SEA LEVEL PRESSURE IN INCHES OF MERCURY
         F - FALLING PRESSURE   R - RISING PRESSURE
         S - STEADY PRESSURE
VSB    - VISIBILITY IN MILES
HX     - HEAT INDEX IN FAHRENHEIT
WCI    - WIND CHILL INDEX IN FAHRENHEIT
TC     - TEMPERATURE IN CELSIUS WHICH IS ALSO KNOWN AS
         TEMPERATURE IN CENTIGRADE
AFB    - AIR FORCE BASE
         LUKE AFB IS LUKE AIR FORCE BASE
         DAVIS-MONTHAN IS DAVIS-MONTHAN AIR FORCE BASE
NAS    - NAVAL AIR STATION
         EL CENTRO NAS IS EL CENTRO NAVAL AIR STATION
N/A    - NOT AVAILABLE




USA.gov is the U.S. government's official web portal to all federal, state and local government web resources and services.